Location: Asarope
(8.2500°N, 4.4833°E)
Time: 14:15:21
(UTC+00:00)

Hubble Space Telescope - Pass Details

Date: 06 August 2021
Orbit: 535 x 539 km, 28.5° (Epoch: 18 September)

Event Time Altitude Azimuth Distance (km) Brightness Sun altitude
Rises 18:20:28 0° 315° (NW) 2,667 5.6 -5.4°
Reaches altitude 10° 18:23:02 10° 329° (NNW) 1,776 4.2 -6.0°
Maximum altitude 18:26:24 24° 25° (NNE) 1,123 2.3 -6.8°
Drops below altitude 10° 18:29:47 10° 80° (E) 1,776 2.9 -7.6°
Enters shadow 18:30:23 - 84° (E) 1,969 3.1 -7.7°
